Sprint 2 - Blue
Course: Road America · 2026-09-06 10:45AM
Weather Conditions
Temp 71°F
(62–72°F range)
Temp type NORMAL
Track DRY
Precip 0.0 mm (NONE)
Humidity 74%
Wind 8 km/h
Cloud 10%
| POS | # | NAME | CLASS | LAPS | GAP | INTERVAL | BEST LAP |
|---|---|---|---|---|---|---|---|
| 1 | 194 | KEVIN CYR | GTD3 | 14 | Lap 14 | Lap 14 | 2:15.600 |
| 2 | 751 | CHRIS DOOLEY | GTD3 | 14 | 0.255 | 0.255 | 2:16.123 |
| 3 | 581 | MARK COOK | GTD3 | 14 | 30.932 | 30.677 | 2:17.193 |
| 4 | 171 | LARRY WEXLER | GTD3 | 14 | 56.145 | 25.213 | 2:19.168 |
| 5 | 109 | RYAN SZYJAKOWSKI | GTD2 | 14 | 56.994 | 0.849 | 2:19.982 |
| 6 | 888 | JEFF BRETON | GTD3 | 14 | 59.538 | 2.544 | 2:16.301 |
| 7 | 111 | NICOLAS GIGUERE | GTD3 | 14 | 1:14.693 | 15.155 | 2:15.390 |
| 8 | 22 | JOHN EDDLEMON | GTD3 | 14 | 1:20.188 | 5.495 | 2:18.682 |
| 9 | 62 | COLIN HAUER | GTD2 | 14 | 1:25.912 | 5.724 | 2:21.491 |
| 10 | 747 | BRAD WEBER | GTD3 | 14 | 1:26.073 | 0.161 | 2:20.114 |
| 11 | 14 | ARTHUR SOLTYS | GTD2 | 14 | 1:31.239 | 5.166 | 2:21.993 |
| 12 | 60 | DAVID WELLS | GTD2 | 14 | 1:32.682 | 1.443 | 2:23.207 |
| 13 | 9 | ANGUS ROGERS | GTB1 | 14 | 1:36.349 | 3.667 | 2:22.825 |
| 14 | 199 | BOB VAN ZANT | GT3 | 14 | 1:45.157 | 8.808 | 2:23.358 |
| 15 | 98 | ED DUNNE | GTB1 | 14 | 1:49.481 | 4.324 | 2:24.080 |
| 16 | 144 | JEFF ROBINS | GTD1 | 14 | 1:52.923 | 3.442 | 2:24.513 |
| 17 | 66 | CLAUDIO KAEMPF | GT4 | 14 | 1:54.021 | 1.098 | 2:23.546 |
| 18 | 221 | PIERRE PAQUET | GTD2 | 14 | 1:55.156 | 1.135 | 2:23.918 |
| 19 | 079 | CHARLES LEW | GT3 | 14 | 1:55.598 | 0.442 | 2:23.886 |
| 20 | 689 | ROBERT BAKER | GT3 | 14 | 1:57.039 | 1.441 | 2:23.541 |
| 21 | 696 | MIKE ORIGER | GTB1 | 14 | 2:05.043 | 8.004 | 2:24.258 |
| 22 | 224 | KIERON O'ROURKE | GTB3 | 14 | 2:14.005 | 8.962 | 2:24.910 |
| 23 | 726 | RUSSEL MARTORANA | GTB1 | 14 | 2:15.367 | 1.362 | 2:25.884 |
| 24 | 951 | ANDREW BURKE | GTB1 | 14 | 2:16.237 | 0.870 | 2:26.030 |
| 25 | 517 | ALEX WILLIAMS | SP996 | 13 | Lap 13 | Lap 13 | 2:26.954 |
| 26 | 498 | COLLIN SCHMITZ | GTB1 | 13 | 0.449 | 0.449 | 2:28.357 |
| 27 | 93 | MATT DISTEFANO | SPC | 13 | 3.372 | 2.923 | 2:28.453 |
| 28 | 147 | WALEED CHEHADI | SPC | 13 | 12.946 | 9.574 | 2:28.240 |
| 29 | 444 | TONY CLINTON | GTB1 | 13 | 15.593 | 2.647 | 2:29.107 |
| 30 | 127 | STEVE GARRISON | GT3 | 13 | 16.360 | 0.767 | 2:29.860 |
| 31 | 447 | JON DUNSKI | GT3 | 13 | 20.966 | 4.606 | 2:29.853 |
| 32 | 556 | DOMINICK BELVEDERE | SPC | 13 | 23.250 | 2.284 | 2:29.995 |
| 33 | 131 | WESTON JEZEK | SP997 | 13 | 41.563 | 18.313 | 2:26.744 |
| 34 | 39 | TIM LAMBIE | SPC | 13 | 42.600 | 1.037 | 2:30.520 |
| 35 | 4 | SAM MAMMANO | GTB1 | 13 | 42.769 | 0.169 | 2:30.323 |
| 36 | 122 | MICHAEL VENABLE | SPC | 13 | 58.743 | 15.974 | 2:32.020 |
| 37 | 42 | PERRY LOWERY | SPC | 13 | 1:06.128 | 7.385 | 2:33.305 |
| 38 | 719 | TRES DRAWHORN | SPC | 13 | 1:22.068 | 15.940 | 2:34.402 |
| 39 | 819 | ROBERT GEE | GTD3 | 12 | Lap 12 | Lap 12 | 2:15.961 |
| 40 | 5 | PATRICK PERONNET | GT4 | 12 | 5:11.647 | 5:11.647 | 2:39.679 |
| DNF | 19 | JASON KNUPP | SPC | 10 | - | - | 2:34.248 |
| DNF | 97 | IAN ROGENSKI | SPC | 6 | - | - | 2:33.443 |
| DNF | 90 | NICOLE ROBICHAUD | GTD3 | 4 | - | - | 2:18.027 |
| DNF | 158 | SCOTT GILL | GTD3 | 4 | - | - | 2:18.025 |
Pole Position